#timestamp,LO_Frequency,Hit,StdDev 
1563386415.2,286047001.1,N
1563386435.1,286046998.5,N
1563386436.0,286046998.5,N
1563386455.8,286046998.4,N
1563386475.7,286046999.5,N
1563386495.5,286047001.1,N
1563386515.3,286047000.6,N
1563386535.2,286047000.5,N
1563386555.0,286047002.4,N
1563386555.9,286047002.4,N
1563386575.8,286047002.7,N
1563386595.6,286047002.2,N
1563386615.4,286047001.5,N
1563386635.3,286047002.2,N
1563386655.1,286046999.8,N
1563386675.8,286047000.7,N
1563386695.7,286046999.9,N
1563386715.5,286047002.5,N
1563386735.4,286047001.8,N
1563386755.2,286047011.9,Y
1563386775.0,286047001.5,P
1563386795.8,286047002.1,P
1563386815.7,286047002.8,P
1563386835.5,286047000.2,N
1563386855.4,286046999.9,N
1563386875.2,286046999.8,N
1563386895.0,286047000.8,N
1563386895.9,286047000.8,N
1563386915.8,286046999.0,N
1563386935.6,286046998.8,N
1563386955.4,286046996.8,N
1563386975.3,286046998.9,N
1563386995.1,286047000.1,N
1563387015.9,286047002.6,N
1563387035.7,286047001.4,N
1563387055.5,286047000.3,N
1563387075.4,286046999.8,N
1563387095.2,286047002.6,N
1563387115.1,286047000.0,N
1563387116.0,286047000.0,N
1563387135.8,286046999.9,N
1563387155.6,286047000.2,N
1563387175.5,286047000.6,N
1563387195.3,286046999.7,N
1563387215.1,286047000.4,N
1563387235.9,286046999.9,N
1563387255.7,286047000.4,N
1563387275.6,286046999.9,N
1563387295.4,286047000.0,N
1563387315.2,286047002.8,N
1563387335.1,286046999.9,N
1563387336.0,286046999.9,N
1563387355.8,286046999.8,N
1563387375.7,286047002.5,N
1563387395.5,286047001.7,N
1563387415.3,286047001.3,N
1563387435.2,286047004.4,Y
1563387455.0,286047001.5,P
1563387455.9,286047001.5,N
1563387475.7,286047002.3,P
1563387495.6,286047002.3,Y
1563387515.4,286047001.2,P
1563387535.3,286046998.2,P
1563387555.1,286046999.2,N
1563387575.8,286046998.2,N
1563387595.7,286046998.6,N
1563387615.5,286046998.4,N
1563387635.4,286046998.6,N
1563387655.2,286047001.2,N
1563387675.0,286046998.4,N
1563387675.9,286046998.4,N
1563387695.8,286046998.2,N
1563387715.6,286047000.9,N
1563387735.4,286047000.7,N
1563387755.3,286047000.0,N
1563387775.1,286047000.1,N
1563387795.9,286047000.0,N
1563387815.7,286047001.0,N
1563387835.5,286046999.0,N
1563387855.4,286046998.6,N
1563387875.2,286047000.9,N
1563387895.1,286047000.6,N
1563387896.0,286047000.6,N
1563387915.8,286047001.1,N
1563387935.6,286046998.1,N
1563387955.5,286046999.0,N
1563387975.3,286046996.6,N
1563387995.1,286046996.8,N
1563388015.9,286046996.6,N
1563388035.7,286046998.9,N
1563388055.6,286046999.8,N
1563388075.4,286047005.5,Y
1563388095.2,286047001.5,P
1563388115.1,286047001.3,N
1563388116.0,286047001.3,N
1563388135.8,286047004.4,Y
1563388155.7,286047002.3,P
1563388175.5,286047000.1,N
1563388195.3,286047003.4,P
1563388215.2,286047001.9,N
1563388235.0,286047004.0,Y
1563388235.9,286047004.0,P
1563388255.8,286046999.9,N
1563388275.6,286047000.4,N
1563388295.4,286047000.9,N
1563388315.3,286046998.9,N
1563388335.1,286046998.2,N
1563388355.8,286047000.8,N
1563388375.7,286046998.9,N
1563388395.5,286046998.1,N
1563388415.4,286046998.7,N
1563388435.2,286046997.0,N
1563388455.0,286046998.4,N
1563388455.9,286046998.4,N
1563388475.8,286046999.1,N
1563388495.6,286046996.5,N
1563388515.5,286046998.7,N
1563388535.3,286047000.3,N
1563388555.1,286046998.3,N
1563388575.9,286046998.3,N
1563388595.7,286046998.5,N
1563388615.5,286047001.0,N
1563388635.4,286046999.8,N
1563388655.2,286047001.2,N
1563388675.1,286046998.3,N
1563388676.0,286046998.3,N
1563388695.8,286047001.2,N
1563388715.6,286047000.7,N
1563388735.5,286047002.7,N
1563388755.3,286047002.7,N
1563388775.2,286046999.9,N
1563388795.9,286047002.7,N
1563388815.8,286047001.8,N
1563388835.6,286047003.8,N
1563388855.4,286047003.1,N
1563388875.3,286047003.7,N
1563388895.1,286047003.4,N
1563388915.8,286047004.3,N
1563388935.7,286047005.2,N
1563388955.5,286047004.5,N
1563388975.4,286047007.6,Y
1563388995.2,286047003.1,P
1563389015.0,286047003.3,N
1563389015.9,286047003.3,N
1563389035.8,286047003.3,N
1563389055.6,286047003.2,Y
1563389075.5,286046999.9,P
1563389095.3,286047000.6,N
1563389115.1,286047002.3,N
1563389135.9,286047000.5,N
1563389155.7,286047001.1,N
1563389175.5,286047000.4,N
1563389195.4,286046998.2,N
1563389215.2,286046998.1,N
1563389235.1,286046999.3,N
1563389236.0,286046999.3,N
1563389255.8,286046998.1,N
1563389275.6,286046998.2,N
1563389295.5,286047000.7,N
1563389315.3,286047002.7,N
1563389335.2,286047000.8,N
1563389355.9,286046998.3,N
1563389375.7,286047001.2,N
1563389395.6,286046998.8,N
1563389415.4,286046998.4,N
1563389435.2,286046998.7,N
1563389455.1,286046996.9,N
1563389456.0,286046996.9,N
1563389475.8,286046997.2,N
1563389495.7,286046996.7,N
1563389515.5,286046997.1,N
1563389535.3,286046997.9,N
1563389555.2,286046999.5,N
1563389575.0,286046998.9,N
1563389575.9,286046998.9,N
1563389595.8,286047011.9,Y
1563389615.6,286047001.2,P
1563389635.4,286046999.3,N
1563389655.3,286046998.9,N
1563389675.1,286046998.9,N
1563389695.8,286046998.4,N
1563389715.7,286047000.5,N
1563389735.5,286046998.6,N
1563389755.3,286046996.5,Y
1563389775.2,286046995.6,P
1563389795.0,286046993.5,P
1563389795.9,286046993.5,N
1563389815.7,286046993.3,N
1563389835.6,286046994.3,N
1563389855.4,286046993.8,N
1563389875.3,286046994.6,N
1563389895.1,286046994.3,Y
1563389896.0,286046994.3,P
1563389915.8,286046998.5,P
1563389935.7,286046996.5,N
1563389955.5,286046996.7,N
1563389975.4,286047000.7,N
1563389995.2,286047000.2,N
